Probability
0 0 0 0 0 0 0 0 0 0 0 0 0 0 0 0 0 0 0 0 0 0 0 0 0 0 0 0 0 0 0 0 0 0 0 0 0 0 0 0 0 0 0
0 0 0 0 0 0 0 0 0 0 0 0 0 0 0 0 0 0 0 0 0 0 0 0 0 0 0 0 0 0 0 0 0 0 0 0 0 0 0 0 0 0 0
0 0 0 0 0 0 0 0 0 0 0 0 0 0 0 0 0 0 0 0 0 0 0 0 0 0 0 0 0 0 0 0 0 0 0 0 0 0 0 0 0 0 0
0 0 0 0 0 0 0 0 0 0 0 0 0 0 0 0 0 0 0 0 0 0 0 0 0 0 0 0 0 0 0 0 0 0 0 0 0 0 0 0 0 0 0
0 0 0 0 0 0 0 0 0 0 0 0 0 0 0 0 0 0 0 0 0 0 0 0 0 0 0 0 0 0 0 0 0 0 0 0 0 0 0 0 0 0 0
0 0 0 0 0 0 0 0 0 0 0 0 0 0 0 0 0 0 0 0 0 0 0 0 0 0 0 0 0 0 0 0 0 0 0 0 0 0 0 0 0 0 0
0 0 0 0 0 0 0 0 0 0 0 0 0 0 0 0 0 0 0 0 0 0 0 0 0 0 0 0 0 0 0 0 0 0 0 0 0 0 0 0 0 0 0
0 0 0 0 0 0 0 0 0 0 0 0 0 0 0 0 0 0 0 0 0 0 0 0 0 0 0 0 0 0 0 0 0 0 0 0 0 0 0 0 0 0 0
0 0 0 0 0 0 0 0 0 0 0 0 0 0 0 0 0 0 0 0 0 0 0 0 0 0 0 0 0 0 0 0 0 0 0 0 0 0 0 0 0 0 0
0 0 0 0 0 0 0 0 0 0 0 0 0 0 0 0 0 0 0 0 0 0 0 0 0 0 0 0 0 0 0 0 0 0 0 0 0 0 0 0 0 0 0
0 0 0 0 0 0 0 0 0 0 0 0 0 0 0 0 0 0 0 0 0 0 0 0 0 0 0 0 0 0 0 0 0 0 0 0 0 0 0 0 0 0 0
0 0 0 0 0 0 0 0 0 0 0 0 0 0 0 0 0 0 0 0 0 0 0 0 0 0 0 0 0 0 0 0 0 0 0 0 0 0 0 0 0 0 0
0 0 0 0 0 0 0 0 0 0 0 0 0 0 0 0 0 0 0 0 0 0 0 0 0 0 0 0 0 0 0 0 0 0 0 0 0 0 0 0 0 0 0
0 0 0 0 0 0 0 0 0 0 0 0 0 0 0 0 0 0 0 0 0 0 0 0 0 0 0 0 0 0 0 0 0 0 0 0 0 0 0 0 0 0 0
0 0 0 0 0 0 0 0 0 0 0 0 0 0 0 0 0 0 0 0 0 0 0 0 0 0 0 0 0 0 0 0 0 0 0 0 0 0 0 0 0 0 0
0 0 0 0 0 0 0 0 0 0 0 0 0 0 0 0 0 0 0 0 0 0 0 0 0 0 0 0 0 0 0 0 0 0 0 0 0 0 0 0 0 0 0
0 0 0 0 0 0 0 0 0 0 0 0 0 0 0 0 0 0 0 0 0 0 0 0 0 0 0 0 0 0 0 0 0 0 0 0 0 0 0 0 0 0 0
0 0 0 0 0 0 0 0 0 0 0 0 0 0 0 0 0 0 0 0 0 0 0 0 0 0 0 0 0 0 0 0 0 0 0 0 0 0 0 0 0 0 0
0 0 0 0 0 0 0 0 0 0 0 0 0 0 0 0 0 0 0 0 0 0 0 0 0 0 0 0 0 0 0 0 0 0 0 0 0 0 0 0 0 0 0
0 0 0 0 0 0 0 0 0 0 0 0 0 0 0 0 0 0 0 0 0 0 0 0 0 0 0 0 0 0 0 0 0 0 0 0 0 0 0 0 0 0 0
0 0 0 0 0 0 0 0 0 0 0 0 0 0 0 0 0 0 0 0 0 0 0 0 0 0 0 0 0 0 0 0 0 0 0 0 0 0 0 0 0 0 0
0 0 0 0 0 0 0 0 0 0 0 0 0 0 0 0 0 0 0 0 0 0 0 0 0 0 0 0 0 0 0 0 0 0 0 0 0 0 0 0 0 0 0
0 0 0 0 0 0 0 0 0 0 0 0 0 0 0 0 0 0 0 0 0 0 0 0 0 0 0 0 0 0 0 0 0 0 0 0 0 0 0 0 0 0 0
0 0 0 0 0 0 0 0 0 0 0 0 0 0 0 0 0 0 0 0 0 0 0 0 0 0 0 0 0 0 0 0 0 0 0 0 0 0 0 0 0 0 0
0 0 0 0 0 0 0 0 0 0 0 0 0 0 0 0 0 0 0 0 0 0 0 0 0 0 0 0 0 0 0 0 0 0 0 0 0 0 0 0 0 0 0
0 0 0 0 0 0 0 0 0 0 0 0 0 0 0 0 0 0 0 0 0 0 0 0 0 0 0 0 0 0 0 0 0 0 0 0 0 0 0 0 0 0 0
Height
5810 5807 5805 5802 5798 5795 5791 5788 5784 5781 5777 5774 5771 5768 5765 5763 5761 5759 5758 5757 5757 5757 5758 5758 5760 5761 5763 5765 5767 5769 5771 5774 5777 5780 5783 5785 5788 5790 5792 5793 5796 5799 5801
5808 5806 5804 5801 5798 5794 5791 5788 5785 5781 5778 5775 5772 5769 5767 5764 5762 5760 5759 5758 5757 5757 5757 5758 5758 5759 5761 5763 5765 5767 5769 5771 5774 5776 5779 5781 5783 5785 5786 5788 5790 5792 5795
5806 5804 5802 5800 5797 5794 5791 5788 5785 5782 5779 5776 5773 5771 5768 5765 5763 5761 5759 5758 5757 5757 5757 5757 5757 5758 5759 5761 5762 5764 5766 5768 5770 5773 5774 5776 5778 5779 5781 5783 5784 5786 5788
5803 5802 5800 5798 5796 5793 5790 5787 5785 5782 5779 5776 5774 5771 5769 5766 5764 5762 5760 5759 5758 5757 5757 5756 5757 5757 5758 5759 5761 5762 5764 5765 5767 5769 5770 5772 5773 5774 5776 5777 5778 5780 5782
5800 5799 5797 5796 5794 5791 5789 5786 5784 5782 5779 5777 5774 5772 5769 5767 5765 5763 5761 5760 5758 5757 5757 5756 5756 5756 5757 5758 5759 5760 5761 5763 5764 5765 5766 5767 5768 5769 5770 5771 5773 5774 5775
5797 5795 5794 5793 5791 5789 5787 5785 5783 5780 5778 5776 5774 5772 5769 5767 5765 5763 5762 5760 5759 5758 5757 5756 5756 5756 5756 5756 5757 5758 5759 5760 5761 5762 5763 5763 5764 5765 5766 5766 5767 5768 5769
5792 5791 5790 5789 5788 5786 5785 5783 5781 5779 5777 5775 5773 5771 5769 5767 5765 5763 5762 5760 5759 5758 5757 5756 5755 5755 5755 5755 5755 5756 5756 5757 5758 5759 5759 5759 5760 5760 5761 5761 5762 5762 5762
5787 5786 5785 5785 5784 5782 5781 5780 5778 5776 5775 5773 5771 5769 5768 5766 5764 5763 5761 5760 5758 5757 5756 5755 5754 5754 5754 5754 5754 5754 5754 5754 5755 5755 5755 5755 5756 5756 5757 5757 5757 5757 5757
5780 5780 5780 5779 5778 5778 5777 5776 5774 5773 5771 5770 5768 5767 5765 5764 5763 5761 5760 5758 5757 5756 5755 5754 5753 5752 5752 5752 5751 5751 5751 5751 5751 5751 5751 5751 5752 5752 5752 5752 5752 5751 5751
5774 5773 5773 5773 5772 5772 5771 5771 5770 5769 5767 5766 5765 5764 5762 5761 5760 5759 5758 5757 5755 5754 5753 5752 5751 5750 5750 5749 5749 5748 5748 5748 5747 5747 5747 5747 5747 5747 5747 5747 5746 5746 5745
5766 5766 5765 5765 5765 5765 5765 5765 5764 5764 5763 5762 5761 5760 5759 5758 5757 5756 5755 5754 5753 5752 5751 5750 5749 5748 5747 5746 5746 5745 5745 5744 5744 5743 5743 5742 5742 5742 5742 5741 5741 5740 5740
5757 5757 5757 5758 5758 5758 5758 5758 5758 5758 5757 5756 5756 5755 5754 5753 5752 5752 5751 5750 5749 5748 5747 5746 5745 5744 5743 5743 5742 5741 5740 5740 5739 5739 5738 5738 5737 5737 5736 5735 5735 5734 5733
5747 5748 5748 5748 5749 5749 5750 5750 5751 5751 5750 5750 5750 5749 5749 5748 5747 5747 5746 5745 5745 5744 5743 5742 5741 5740 5739 5739 5738 5737 5736 5735 5734 5734 5733 5732 5731 5730 5730 5729 5728 5727 5727
5736 5737 5738 5738 5739 5740 5741 5741 5742 5743 5743 5743 5743 5743 5742 5742 5742 5741 5741 5740 5740 5739 5738 5737 5736 5736 5735 5734 5733 5732 5731 5730 5729 5728 5727 5726 5725 5724 5723 5722 5722 5721 5720
5724 5725 5726 5727 5728 5730 5731 5732 5733 5734 5734 5735 5735 5735 5735 5735 5735 5735 5734 5734 5733 5733 5732 5732 5731 5730 5729 5728 5727 5726 5725 5724 5723 5722 5721 5720 5719 5718 5716 5715 5714 5713 5712
5710 5712 5714 5715 5717 5718 5720 5721 5722 5724 5725 5726 5727 5727 5727 5728 5728 5728 5727 5727 5726 5726 5726 5725 5724 5723 5722 5721 5720 5719 5718 5717 5716 5715 5713 5712 5711 5710 5709 5708 5707 5705 5704
5696 5698 5700 5702 5704 5706 5708 5710 5711 5713 5714 5716 5717 5718 5719 5719 5719 5720 5720 5719 5719 5719 5719 5718 5717 5716 5715 5714 5713 5712 5711 5710 5708 5707 5706 5705 5703 5702 5701 5699 5698 5696 5695
5680 5683 5685 5688 5691 5693 5695 5697 5699 5701 5703 5705 5706 5708 5709 5710 5710 5711 5711 5711 5711 5711 5711 5710 5709 5709 5707 5706 5705 5704 5703 5702 5701 5699 5698 5697 5695 5694 5692 5691 5689 5687 5685
5664 5667 5669 5672 5676 5679 5682 5684 5687 5689 5691 5693 5695 5697 5698 5700 5701 5701 5702 5703 5703 5702 5702 5702 5701 5700 5699 5698 5697 5696 5695 5694 5692 5691 5690 5688 5686 5685 5683 5681 5679 5677 5675
5647 5651 5653 5656 5660 5664 5667 5671 5674 5676 5679 5681 5683 5686 5687 5689 5690 5691 5692 5693 5693 5693 5693 5693 5692 5692 5691 5690 5689 5687 5686 5685 5683 5682 5680 5679 5677 5675 5673 5671 5669 5667 5664
5630 5634 5637 5640 5644 5648 5653 5656 5660 5663 5666 5669 5671 5674 5676 5678 5679 5681 5682 5683 5683 5683 5683 5683 5683 5682 5681 5681 5679 5678 5677 5675 5674 5672 5670 5669 5667 5665 5663 5660 5658 5656 5653
5613 5616 5620 5624 5628 5633 5637 5641 5645 5649 5653 5656 5658 5661 5663 5666 5668 5669 5671 5672 5672 5673 5673 5673 5673 5672 5672 5671 5670 5669 5667 5666 5664 5662 5660 5658 5656 5654 5651 5649 5646 5644 5641
5595 5599 5603 5608 5612 5617 5621 5626 5630 5635 5638 5642 5645 5648 5651 5653 5656 5658 5659 5660 5661 5662 5662 5662 5662 5662 5662 5661 5660 5659 5657 5656 5654 5652 5650 5647 5645 5643 5640 5637 5635 5632 5629
5579 5582 5587 5591 5596 5600 5605 5610 5615 5620 5624 5628 5632 5635 5638 5641 5644 5646 5647 5649 5650 5651 5651 5651 5652 5651 5651 5650 5649 5648 5647 5645 5643 5641 5639 5636 5634 5631 5629 5626 5623 5620 5617
5562 5566 5570 5575 5580 5585 5590 5595 5600 5605 5610 5614 5618 5622 5625 5628 5631 5633 5635 5637 5638 5639 5640 5640 5641 5640 5640 5639 5638 5637 5636 5634 5632 5630 5627 5625 5623 5620 5617 5614 5611 5607 5604
5545 5550 5554 5559 5564 5569 5574 5580 5585 5590 5596 5600 5604 5608 5612 5615 5618 5621 5623 5625 5627 5628 5629 5629 5629 5629 5628 5628 5627 5625 5624 5622 5620 5618 5616 5613 5611 5608 5605 5602 5598 5595 5592
Wind_Speed
10 11 12 13 14 14 15 15 15 16 16 15 14 14 12 10 7 5 4 2 1 1 3 5 7 9 11 13 15 16 17 20 21 22 22 23 23 24 25 25 27 29 30
10 11 11 12 13 13 13 14 14 14 15 14 14 13 13 12 9 7 5 3 2 1 2 4 6 8 10 11 12 14 15 16 18 19 20 21 21 22 23 24 25 27 29
10 10 11 11 12 12 12 13 13 13 13 13 13 12 12 11 10 8 6 5 3 1 1 3 5 6 8 10 11 12 13 14 16 17 18 19 20 20 21 23 24 26 27
11 11 11 11 11 11 11 12 12 12 12 12 12 12 11 11 10 9 7 6 5 3 1 1 3 5 7 8 10 11 12 13 15 16 17 17 18 18 20 21 22 22 25
13 12 11 11 11 11 11 11 11 11 11 11 11 11 11 10 10 9 7 6 5 4 2 1 1 3 5 7 9 9 10 12 13 14 15 16 17 17 19 20 21 22 24
15 14 13 12 11 11 11 10 10 10 10 10 10 10 9 9 9 9 8 6 5 4 3 2 1 2 3 5 7 8 9 11 12 12 13 14 15 16 17 18 19 21 23
17 16 15 14 13 12 12 11 10 10 10 10 9 9 9 8 8 8 8 6 5 5 4 3 2 2 3 4 5 7 8 10 11 12 12 12 13 14 15 15 16 17 19
19 18 17 16 15 14 13 12 11 11 10 10 9 9 8 8 8 7 7 7 6 5 4 4 4 3 3 4 5 6 8 9 10 11 12 12 13 13 14 15 16 17 18
21 21 20 19 18 17 15 14 13 12 12 11 10 9 9 8 8 7 7 7 6 6 6 5 5 5 5 5 6 7 8 9 10 11 12 13 14 14 15 15 16 17 18
24 23 22 21 20 19 18 17 16 14 13 12 11 11 10 10 9 9 8 8 7 7 7 7 7 7 7 7 8 8 9 10 11 11 12 13 14 15 16 16 17 17 18
26 26 25 24 23 22 21 19 18 17 16 14 13 12 12 11 11 10 10 10 9 9 9 9 9 9 9 9 10 10 11 11 12 13 14 15 16 16 17 18 18 18 19
29 28 27 26 25 25 23 22 21 19 18 17 16 15 14 13 13 13 12 12 11 11 11 11 11 11 11 11 12 12 13 14 14 15 16 16 17 17 18 18 19 19 20
31 31 30 29 28 27 26 25 23 22 21 19 18 17 16 15 15 15 14 14 14 13 13 13 13 13 13 13 14 14 14 15 16 16 17 17 18 19 19 20 21 21 21
34 33 33 31 31 30 29 28 26 25 23 22 21 20 19 18 17 17 16 16 16 15 15 15 15 15 15 15 16 16 16 17 17 18 19 20 20 21 21 22 23 23 24
37 36 35 34 33 32 32 30 29 28 26 25 24 23 22 21 20 19 19 18 18 17 17 17 17 17 17 18 18 18 19 19 19 20 21 21 22 23 23 24 24 25 25
41 39 38 37 36 35 34 33 32 30 29 28 27 26 24 23 22 21 21 20 20 20 19 19 19 19 20 20 20 20 20 21 21 22 22 23 23 24 25 25 26 26 27
44 42 41 40 39 37 36 35 34 33 32 30 29 28 27 26 25 24 23 22 22 22 21 21 21 21 21 22 22 22 22 23 23 23 24 24 25 26 26 27 28 28 29
46 45 44 43 42 40 39 37 36 35 34 33 32 31 29 28 27 26 25 24 24 23 23 23 23 23 23 23 24 24 24 24 25 25 25 26 26 27 28 29 30 30 31
47 47 46 45 44 43 42 40 38 37 36 35 34 33 32 31 29 28 27 26 26 25 25 25 24 24 25 25 25 25 25 26 26 27 27 28 28 29 30 31 31 32 33
48 48 48 48 46 45 44 43 41 40 39 38 36 35 34 33 31 30 29 28 28 27 27 26 26 26 26 26 26 26 27 27 28 28 29 29 30 31 32 32 33 34 35
47 48 49 49 48 47 46 45 43 42 41 39 38 37 36 35 33 32 31 31 30 29 29 28 28 28 28 28 28 28 28 29 29 29 30 31 32 33 34 35 35 36 36
47 47 48 49 49 48 47 46 45 44 42 41 40 39 38 36 35 34 33 32 32 31 30 30 29 29 29 29 29 29 29 29 30 31 32 33 33 34 35 36 36 37 38
46 46 47 48 49 49 49 48 47 45 44 42 41 40 39 38 37 36 35 34 33 32 31 31 30 30 30 30 30 30 30 31 32 33 33 34 34 35 35 36 37 38 38
46 46 47 47 48 48 49 49 49 47 45 44 43 42 40 39 38 37 36 35 34 33 32 32 32 32 32 32 32 32 32 33 33 34 34 35 35 35 36 37 38 38 39
46 46 47 47 47 48 48 48 49 48 47 45 44 42 41 40 39 38 36 35 34 34 33 33 33 33 33 33 33 33 34 34 34 34 35 36 36 37 37 38 39 39 40
46 46 47 48 48 48 48 48 49 48 48 47 45 43 42 40 39 38 37 36 35 35 34 34 33 33 34 34 34 34 34 34 35 35 35 36 36 37 38 39 40 40 40
Wind_Direction
333 339 345 352 356 359 2 4 7 9 12 15 17 20 21 21 21 21 21 20 12 211 209 211 211 212 215 218 221 220 222 222 222 225 227 229 232 235 237 238 239 239 240
322 330 336 344 351 356 359 2 5 8 11 14 17 19 21 23 23 22 22 19 12 236 220 217 213 212 216 217 218 219 223 225 227 227 229 233 235 239 241 243 241 241 243
309 318 325 333 342 349 354 358 2 5 8 11 14 16 19 21 23 25 27 23 19 350 241 230 219 214 215 216 217 221 224 227 230 232 235 239 243 244 243 244 244 245 247
296 304 312 321 330 339 346 351 356 0 4 7 10 13 16 18 22 25 29 29 28 28 22 234 225 223 220 218 218 221 226 230 233 236 239 244 247 245 245 246 247 248 249
285 291 298 307 317 326 335 340 344 350 355 1 5 8 12 14 16 19 21 25 28 29 30 352 253 234 229 225 223 224 226 228 231 237 242 246 247 247 248 249 250 252 254
278 281 286 294 302 311 320 328 334 338 343 348 353 358 2 7 10 11 13 15 16 18 19 2 315 260 236 229 228 228 229 230 232 238 243 247 250 251 252 253 254 255 257
272 274 278 282 288 295 303 312 319 324 330 335 338 341 347 352 357 1 4 2 1 3 6 355 331 297 263 242 238 237 237 237 240 244 247 250 253 254 254 255 255 256 259
269 270 272 275 279 284 289 295 302 310 316 321 323 326 329 334 340 346 352 352 345 340 340 339 331 313 291 272 261 257 253 252 252 254 254 254 256 257 259 262 262 262 263
267 267 268 270 272 275 279 283 289 295 302 307 310 311 312 315 320 327 332 335 335 330 321 318 314 302 295 289 279 271 266 262 262 260 258 258 258 259 262 265 266 266 268
265 265 265 266 268 269 271 275 280 284 289 294 298 300 301 302 304 307 311 314 316 317 314 307 302 298 291 287 285 281 276 272 267 263 263 263 263 263 265 266 267 268 268
264 263 263 263 264 265 266 269 272 275 279 283 287 290 291 292 294 296 298 299 300 302 303 301 298 295 291 286 284 282 278 276 273 271 269 268 268 268 267 268 268 270 271
262 262 261 261 261 262 263 265 267 269 272 275 278 281 284 285 286 288 289 290 292 293 295 296 294 292 290 288 286 284 280 278 276 275 273 272 271 270 271 271 271 272 274
261 261 260 259 259 259 260 261 263 265 267 269 272 275 277 279 281 281 282 284 285 287 289 290 290 289 288 287 285 285 283 280 278 277 276 275 275 274 274 275 275 276 276
260 260 259 258 257 257 257 258 259 261 263 265 267 270 272 275 276 277 278 280 281 282 284 286 287 288 288 287 285 284 284 284 282 280 278 277 276 276 276 278 279 279 279
258 258 257 256 255 256 256 256 257 258 259 261 263 265 268 271 272 273 275 276 277 279 281 283 285 286 286 286 285 284 284 284 284 283 281 279 278 278 278 279 280 281 281
256 256 255 255 254 254 254 254 255 256 257 258 260 262 264 267 269 271 272 273 275 277 280 282 283 284 285 286 285 285 284 284 284 284 283 282 280 279 279 279 280 282 282
253 253 253 253 252 251 252 252 252 253 254 255 256 258 261 263 266 268 270 272 273 276 279 281 283 284 285 285 285 285 284 284 285 285 284 284 283 282 281 281 282 283 283
251 251 251 251 251 250 249 249 250 250 251 252 254 256 258 260 262 265 267 269 272 274 277 279 281 283 285 285 285 285 284 284 285 285 285 285 284 284 284 284 284 284 284
250 249 248 248 248 248 247 247 248 248 249 251 252 253 255 257 259 262 264 267 270 272 274 277 280 282 284 285 285 285 285 285 286 286 286 285 285 285 285 285 286 286 285
250 248 247 247 246 245 246 245 246 247 248 249 250 252 254 256 257 260 262 265 268 270 273 275 278 280 283 285 285 285 286 287 287 286 286 287 287 287 287 287 287 287 287
250 248 247 246 245 244 244 244 244 245 247 248 249 251 252 254 256 258 261 263 266 268 271 274 277 279 282 283 284 285 286 287 288 288 287 288 288 288 288 288 288 288 288
249 248 247 246 245 243 242 242 243 243 245 246 248 249 251 252 255 257 260 263 265 267 270 273 275 278 280 281 283 285 287 288 289 289 289 289 289 289 290 290 289 289 289
247 246 245 245 244 242 240 240 240 241 242 244 246 248 249 251 253 256 259 261 264 267 270 272 274 277 279 280 282 284 286 288 289 289 290 290 291 291 292 292 291 291 290
247 245 243 243 242 242 240 239 239 239 240 242 244 245 247 250 252 254 257 259 262 265 268 271 274 276 278 280 282 284 286 288 289 289 290 291 291 292 293 293 293 292 291
246 244 242 242 241 240 239 238 238 238 239 240 242 243 245 248 250 253 255 258 261 263 266 269 273 276 278 280 282 284 286 287 288 289 291 292 292 293 294 294 294 293 293
245 243 241 241 240 239 238 237 237 236 237 239 240 241 243 245 248 250 253 256 259 262 266 269 272 275 278 280 283 285 286 287 288 290 291 292 293 294 295 295 295 294 294